Change the Weather History Date:

Tuesday, January 22, 2013

  Actual Average Record
Temperature  
Mean Temperature 56 °F -  
Max Temperature 65 °F 68 °F 80 °F (2007)
Min Temperature 47 °F 48 °F 32 °F (2009)
Degree Days  
Heating Degree Days 8    
Growing Degree Days 6 (Base 50)    
Moisture  
Dew Point 47 °F    
Average Humidity 65    
Maximum Humidity 86    
Minimum Humidity 51    
Precipitation  
Precipitation 0.00 in - - ()
Sea Level Pressure  
Sea Level Pressure 30.19 in    
Wind  
Wind Speed 9 mph (North)    
Max Wind Speed 16 mph    
Max Gust Speed 25 mph    
Visibility 10 miles    
Events      
Averages and records for this station are not official NWS values.
T = Trace of Precipitation, MM = Missing Value Source: NWS Daily Summary

Daily Weather History Graph

Daily Weather History Graph

Search for Another Location

Airport or City:

Trip Planner

Search our weather history database for the weather conditions in past years. The results will help you decide how hot, cold, wet, or windy it might be!

Date:

Astronomy

Jan. 22, 2013 Rise Set
Actual Time 7:15 AM EST 5:54 PM EST
Civil Twilight 6:49 AM EST 6:19 PM EST
Nautical Twilight 6:21 AM EST 6:47 PM EST
Astronomical Twilight 5:53 AM EST 7:16 PM EST
Moon 2:19 PM EST (1/22) 3:32 AM EST (1/22)
Length of Visible Light 11h 29m
Length of Day
10h 39m
Waxing Gibbous, 82% of the Moon is Illuminated
Jan 22
Waxing Gibbous
Jan 26
Full
Feb 3
Last Quarter
Feb 10
New
Feb 17
First Quarter

Hourly Weather History & Observations

Time (EST) Temp. Dew Point Humidity Pressure Visibility Wind Dir Wind Speed Gust Speed Precip Events Conditions
12:55 AM 61.7 °F 55.4 °F 80% 30.09 in 10.0 mi North 6.9 mph - N/A   Overcast
1:55 AM 62.6 °F 53.4 °F 72% 30.09 in 10.0 mi North 9.2 mph - N/A   Overcast
2:55 AM 62.4 °F 50.0 °F 64% 30.08 in 10.0 mi North 10.4 mph - N/A   Overcast
3:55 AM 61.3 °F 48.4 °F 62% 30.07 in 10.0 mi North 9.2 mph - N/A   Mostly Cloudy
4:55 AM 61.3 °F 47.3 °F 60% 30.08 in 10.0 mi North 6.9 mph - N/A   Overcast
5:55 AM 57.2 °F 50.5 °F 78% 30.09 in 10.0 mi NNW 6.9 mph - N/A   Overcast
6:55 AM 56.3 °F 50.4 °F 80% 30.11 in 10.0 mi NNW 6.9 mph - N/A   Mostly Cloudy
7:55 AM 57.4 °F 50.2 °F 77% 30.15 in 10.0 mi NNW 10.4 mph - N/A   Mostly Cloudy
8:55 AM 61.3 °F 51.4 °F 70% 30.17 in 10.0 mi North 12.7 mph 18.4 mph N/A   Mostly Cloudy
9:55 AM 63.9 °F 48.0 °F 56% 30.21 in 10.0 mi North 16.1 mph 25.3 mph N/A   Partly Cloudy
10:55 AM 64.8 °F 47.1 °F 53% 30.22 in 10.0 mi North 12.7 mph 25.3 mph N/A   Partly Cloudy
11:55 AM 65.5 °F 46.8 °F 51% 30.22 in 10.0 mi North 16.1 mph 23.0 mph N/A   Scattered Clouds
12:55 PM 64.6 °F 47.7 °F 54% 30.21 in 10.0 mi North 16.1 mph 23.0 mph N/A   Scattered Clouds
1:55 PM 63.3 °F 46.2 °F 54% 30.21 in 10.0 mi North 16.1 mph 24.2 mph N/A   Partly Cloudy
2:55 PM 61.5 °F 46.0 °F 57% 30.20 in 10.0 mi North 13.8 mph - N/A   Partly Cloudy
3:55 PM 61.0 °F 43.5 °F 53% 30.22 in 10.0 mi North 15.0 mph 20.7 mph N/A   Partly Cloudy
4:55 PM 59.2 °F 43.0 °F 55% 30.24 in 10.0 mi North 11.5 mph - N/A   Clear
5:55 PM 56.3 °F 43.2 °F 61% 30.25 in 10.0 mi North 6.9 mph - N/A   Scattered Clouds
6:55 PM 52.2 °F 42.4 °F 69% 30.26 in 10.0 mi North 4.6 mph - N/A   Partly Cloudy
7:55 PM 53.1 °F 41.7 °F 65% 30.27 in 10.0 mi North 6.9 mph - N/A   Clear
8:55 PM 53.8 °F 39.7 °F 59% 30.27 in 10.0 mi North 4.6 mph - N/A   Clear
9:55 PM 50.9 °F 43.0 °F 74% 30.28 in 10.0 mi NW 3.5 mph - N/A   Clear
10:55 PM 48.9 °F 43.0 °F 80% 30.29 in 10.0 mi WNW 4.6 mph - N/A   Clear
11:55 PM 47.1 °F 43.0 °F 86% 30.28 in 10.0 mi NW 5.8 mph - N/A   Clear